Voltar ao catálogo

ONEWEB-0332

AtivoComunicaçõesPO
NORAD 49279·PAYLOAD·🇬🇧 United Kingdom

Lançado Oct 14, 2021 de Vostochny Cosmodrome

Loading…

Próximas Passagens (próximas 24 horas)

TLE

AtualizadoSource: CelesTrak SupGP

Época: Sep 14, 2026, 16:06 UTC

1 49279C 21090A   26257.67102266 -.00001221  00000+0 -32970-2 0  2572
2 49279  87.8893 271.8633 0002033  88.1331 334.8576 13.14502937    10

Acompanhe ONEWEB-0332 em tempo real com AllMySat

Download on the App Store